Total_Precipitation_Accumulation
0.00 0.00 0.00 0.00 0.00 0.00 0.00 0.00 0.00 0.00 0.00 0.00 0.01 0.03 0.06 0.07 0.08 0.10 0.10 0.12 0.15 0.15 0.18 0.22 0.24 0.26 0.33 0.35 0.38 0.37 0.33 0.37 0.36 0.09 0.02 0.04 0.12 0.20 0.19 0.14 0.14 0.13 0.11
0.00 0.00 0.00 0.00 0.00 0.00 0.00 0.00 0.00 0.00 0.00 0.00 0.02 0.05 0.09 0.11 0.11 0.14 0.15 0.15 0.18 0.19 0.21 0.25 0.28 0.30 0.36 0.40 0.47 0.48 0.40 0.35 0.39 0.23 0.06 0.04 0.12 0.22 0.26 0.20 0.17 0.15 0.11
0.00 0.00 0.00 0.00 0.00 0.00 0.00 0.00 0.00 0.00 0.00 0.00 0.02 0.07 0.15 0.21 0.19 0.16 0.20 0.21 0.20 0.22 0.25 0.31 0.35 0.39 0.38 0.40 0.50 0.54 0.48 0.40 0.39 0.35 0.15 0.07 0.10 0.22 0.32 0.29 0.25 0.23 0.17
0.00 0.00 0.00 0.00 0.00 0.00 0.00 0.00 0.00 0.00 0.00 0.01 0.02 0.06 0.17 0.30 0.33 0.34 0.37 0.32 0.26 0.21 0.19 0.24 0.36 0.49 0.54 0.57 0.58 0.56 0.57 0.56 0.50 0.44 0.29 0.17 0.14 0.22 0.37 0.42 0.36 0.32 0.27
0.00 0.00 0.00 0.00 0.00 0.00 0.00 0.00 0.00 0.00 0.00 0.01 0.01 0.03 0.14 0.40 0.65 0.82 0.74 0.47 0.31 0.23 0.17 0.19 0.31 0.51 0.67 0.84 0.89 0.78 0.75 0.78 0.71 0.63 0.52 0.38 0.29 0.32 0.41 0.46 0.50 0.43 0.40
0.00 0.00 0.00 0.00 0.00 0.00 0.00 0.00 0.00 0.00 0.01 0.01 0.01 0.02 0.08 0.36 0.73 0.96 0.70 0.37 0.26 0.22 0.20 0.19 0.27 0.47 0.60 0.67 0.76 0.76 0.81 0.93 0.98 0.89 0.75 0.59 0.44 0.37 0.40 0.48 0.58 0.62 0.54
0.00 0.00 0.00 0.00 0.00 0.00 0.00 0.00 0.00 0.01 0.01 0.01 0.01 0.02 0.03 0.19 0.56 0.83 0.57 0.28 0.20 0.19 0.19 0.18 0.21 0.33 0.44 0.52 0.54 0.52 0.54 0.66 0.86 0.95 0.89 0.70 0.58 0.47 0.50 0.53 0.55 0.64 0.61
0.00 0.00 0.00 0.00 0.00 0.00 0.00 0.00 0.01 0.01 0.01 0.01 0.02 0.02 0.02 0.09 0.42 0.71 0.51 0.24 0.16 0.16 0.17 0.15 0.12 0.20 0.33 0.48 0.55 0.51 0.48 0.55 0.74 0.88 0.98 0.89 0.76 0.72 0.79 0.83 0.78 0.67 0.63
0.00 0.00 0.00 0.00 0.00 0.00 0.00 0.01 0.01 0.01 0.02 0.02 0.02 0.02 0.02 0.04 0.28 0.67 0.53 0.23 0.15 0.14 0.16 0.14 0.10 0.11 0.24 0.36 0.36 0.34 0.32 0.43 0.55 0.69 0.73 0.69 0.65 0.73 0.89 1.03 0.97 0.81 0.76
0.00 0.00 0.00 0.00 0.00 0.00 0.01 0.01 0.01 0.01 0.02 0.02 0.02 0.02 0.02 0.02 0.15 0.55 0.61 0.25 0.15 0.11 0.12 0.12 0.12 0.15 0.21 0.23 0.20 0.23 0.33 0.39 0.38 0.38 0.38 0.37 0.37 0.43 0.63 0.92 1.11 1.05 0.92
0.00 0.00 0.00 0.00 0.00 0.01 0.01 0.01 0.02 0.02 0.02 0.02 0.02 0.02 0.02 0.02 0.06 0.33 0.59 0.37 0.21 0.12 0.13 0.13 0.10 0.14 0.15 0.14 0.13 0.18 0.35 0.31 0.24 0.26 0.28 0.28 0.31 0.39 0.55 0.76 1.02 1.23 1.18
0.00 0.00 0.00 0.00 0.00 0.01 0.01 0.02 0.02 0.03 0.03 0.03 0.03 0.03 0.02 0.02 0.07 0.23 0.36 0.32 0.24 0.12 0.12 0.11 0.07 0.09 0.08 0.07 0.07 0.11 0.14 0.11 0.11 0.15 0.17 0.22 0.29 0.38 0.51 0.67 0.87 1.10 1.25
0.00 0.00 0.00 0.00 0.00 0.01 0.02 0.03 0.03 0.04 0.06 0.06 0.06 0.05 0.03 0.03 0.10 0.22 0.18 0.14 0.18 0.16 0.20 0.16 0.06 0.04 0.04 0.03 0.04 0.05 0.05 0.06 0.09 0.11 0.16 0.21 0.29 0.39 0.44 0.50 0.60 0.79 0.97
0.00 0.00 0.00 0.00 0.01 0.02 0.03 0.04 0.05 0.08 0.16 0.15 0.12 0.07 0.05 0.07 0.21 0.33 0.17 0.08 0.10 0.17 0.18 0.10 0.04 0.04 0.03 0.02 0.01 0.02 0.02 0.04 0.08 0.12 0.16 0.18 0.18 0.23 0.32 0.44 0.53 0.62 0.79
0.00 0.00 0.00 0.01 0.02 0.03 0.03 0.04 0.06 0.09 0.21 0.25 0.17 0.14 0.15 0.23 0.34 0.33 0.19 0.12 0.12 0.17 0.16 0.12 0.08 0.06 0.05 0.03 0.01 0.01 0.01 0.01 0.03 0.06 0.10 0.13 0.16 0.19 0.26 0.36 0.51 0.59 0.72
0.00 0.01 0.01 0.02 0.02 0.03 0.04 0.04 0.05 0.06 0.10 0.10 0.10 0.14 0.15 0.25 0.25 0.17 0.13 0.10 0.10 0.10 0.11 0.11 0.07 0.05 0.04 0.03 0.02 0.02 0.01 0.01 0.01 0.04 0.08 0.12 0.18 0.23 0.26 0.30 0.42 0.57 0.71
0.01 0.01 0.02 0.02 0.03 0.04 0.05 0.06 0.06 0.05 0.05 0.04 0.05 0.08 0.14 0.18 0.15 0.11 0.10 0.07 0.07 0.08 0.10 0.07 0.04 0.04 0.04 0.03 0.03 0.03 0.02 0.01 0.01 0.02 0.05 0.10 0.14 0.19 0.24 0.28 0.36 0.49 0.62
0.01 0.01 0.02 0.03 0.04 0.05 0.06 0.07 0.07 0.07 0.06 0.04 0.03 0.05 0.10 0.12 0.12 0.10 0.08 0.09 0.10 0.09 0.08 0.06 0.05 0.05 0.04 0.04 0.04 0.04 0.02 0.01 0.01 0.01 0.03 0.06 0.10 0.15 0.20 0.25 0.33 0.45 0.56
0.01 0.02 0.03 0.03 0.04 0.04 0.05 0.06 0.06 0.07 0.07 0.06 0.05 0.05 0.08 0.08 0.09 0.08 0.10 0.12 0.09 0.07 0.06 0.05 0.05 0.06 0.05 0.05 0.04 0.04 0.03 0.02 0.01 0.02 0.02 0.03 0.06 0.11 0.16 0.21 0.28 0.37 0.45
0.01 0.02 0.04 0.03 0.04 0.05 0.06 0.07 0.08 0.09 0.09 0.08 0.08 0.09 0.15 0.15 0.13 0.11 0.11 0.11 0.09 0.06 0.06 0.06 0.05 0.06 0.06 0.06 0.05 0.04 0.03 0.02 0.02 0.02 0.02 0.02 0.04 0.07 0.12 0.18 0.25 0.32 0.39
0.01 0.02 0.04 0.04 0.05 0.06 0.08 0.09 0.10 0.11 0.11 0.09 0.08 0.10 0.20 0.19 0.12 0.10 0.10 0.10 0.10 0.10 0.08 0.07 0.06 0.07 0.07 0.06 0.05 0.04 0.04 0.03 0.02 0.02 0.02 0.02 0.03 0.05 0.08 0.14 0.21 0.28 0.34
0.01 0.02 0.03 0.05 0.07 0.08 0.09 0.10 0.11 0.12 0.12 0.11 0.09 0.08 0.12 0.14 0.12 0.11 0.11 0.10 0.09 0.10 0.10 0.10 0.08 0.08 0.10 0.11 0.10 0.07 0.05 0.03 0.02 0.03 0.03 0.02 0.02 0.03 0.05 0.09 0.15 0.22 0.29
0.02 0.04 0.05 0.06 0.08 0.10 0.12 0.12 0.13 0.13 0.12 0.10 0.10 0.10 0.10 0.12 0.11 0.12 0.12 0.10 0.09 0.09 0.08 0.09 0.10 0.09 0.10 0.10 0.09 0.10 0.08 0.05 0.04 0.05 0.05 0.04 0.03 0.03 0.04 0.06 0.11 0.17 0.25
0.04 0.06 0.07 0.09 0.11 0.13 0.14 0.15 0.14 0.13 0.12 0.12 0.11 0.10 0.10 0.10 0.10 0.09 0.10 0.09 0.09 0.09 0.10 0.11 0.11 0.11 0.12 0.12 0.09 0.08 0.07 0.07 0.08 0.09 0.07 0.06 0.04 0.03 0.04 0.05 0.08 0.13 0.20
0.06 0.07 0.10 0.12 0.15 0.16 0.16 0.16 0.14 0.13 0.12 0.12 0.11 0.11 0.10 0.10 0.09 0.08 0.07 0.08 0.09 0.09 0.09 0.10 0.12 0.14 0.14 0.13 0.11 0.10 0.09 0.10 0.13 0.15 0.12 0.08 0.05 0.04 0.04 0.05 0.07 0.10 0.15
0.07 0.10 0.12 0.15 0.18 0.18 0.18 0.17 0.15 0.14 0.14 0.13 0.12 0.12 0.12 0.11 0.09 0.08 0.08 0.09 0.10 0.09 0.09 0.10 0.12 0.15 0.14 0.14 0.13 0.11 0.10 0.13 0.14 0.11 0.09 0.07 0.05 0.03 0.04 0.04 0.06 0.08 0.13